This is the latest recevied weather packets stored in our database for station/object N0HOT. If no packets are shown the sender has not sent any weather packets the latest 10 day(s).
| Time | Temp. | Humidity | Pressure | Rain* | Wind** | Luminosity | Snow |
|---|---|---|---|---|---|---|---|
| 1788562894 | 30° C | 67% | 1011.8 hPa | 0 mm | - | 38 W/m² | - |
| 1788562592 | 30° C | 67% | 1011.8 hPa | 0 mm | - | 43 W/m² | - |
| 1788562287 | 30.56° C | 65% | 1012.2 hPa | 0 mm | - | 43 W/m² | - |
| 1788561981 | 30.56° C | 65% | 1011.8 hPa | 0 mm | - | 60 W/m² | - |
| 1788561676 | 30.56° C | 63% | 1011.8 hPa | 0 mm | - | 47 W/m² | - |
| 1788561375 | 30.56° C | 63% | 1011.8 hPa | 0 mm | - | 57 W/m² | - |
| 1788561071 | 30.56° C | 61% | 1012.2 hPa | 0 mm | - | 102 W/m² | - |
| 1788560767 | 30.56° C | 62% | 1012.2 hPa | 0 mm | - | 60 W/m² | - |
| 1788560462 | 30.56° C | 61% | 1012.2 hPa | 0 mm | - | 120 W/m² | - |
| 1788560162 | 30.56° C | 62% | 1011.8 hPa | 0 mm | - | 73 W/m² | - |
| 1788559862 | 31.11° C | 61% | 1012.2 hPa | 0 mm | - | 58 W/m² | - |
| 1788559556 | 31.11° C | 62% | 1011.8 hPa | 0 mm | - | 61 W/m² | - |
| 1788559251 | 31.67° C | 58% | 1011.5 hPa | 0 mm | - | 163 W/m² | - |
| 1788558946 | 31.67° C | 59% | 1011.1 hPa | 0 mm | - | 121 W/m² | - |
| 1788558642 | 32.22° C | 60% | 1011.5 hPa | 0 mm | - | 191 W/m² | - |
| 1788558337 | 32.78° C | 57% | 1011.5 hPa | 0 mm | - | 176 W/m² | - |
| 1788558033 | 32.78° C | 56% | 1011.8 hPa | 0 mm | - | 322 W/m² | - |
| 1788557731 | 32.22° C | 56% | 1011.5 hPa | 0 mm | - | 332 W/m² | - |
| 1788557428 | 31.67° C | 57% | 1011.8 hPa | 0 mm | - | 355 W/m² | - |
| 1788557126 | 31.67° C | 57% | 1011.5 hPa | 0 mm | - | 406 W/m² | - |
| 1788556822 | 31.11° C | 56% | 1011.8 hPa | 0 mm | - | 449 W/m² | - |
| 1788556516 | 31.11° C | 58% | 1011.8 hPa | 0 mm | - | 432 W/m² | - |
| 1788556212 | 30.56° C | 60% | 1011.8 hPa | 0 mm | - | 452 W/m² | - |
| 1788555911 | 30.56° C | 59% | 1011.5 hPa | 0 mm | - | 442 W/m² | - |
| 1788555607 | 31.11° C | 66% | 1011.5 hPa | 0 mm | - | 310 W/m² | - |
* Rain latest hour (hover to see other rain measurements)
** Current wind speed in m/s (hover to see current wind gust speed)